Time,TemperatureF,DewpointF,PressureIn,WindDirection,WindDirectionDegrees,WindSpeedMPH,WindSpeedGustMPH,Humidity,HourlyPrecipIn,Conditions,Clouds,dailyrainin,SoftwareType,DateUTC
2013-04-07 00:00:00,53.4,48.7,30.12,SSE,165,1.0,5.0,84,0.00,,SKC,0.00,VWS V14.01,2013-04-07 07:00:00,
2013-04-07 00:10:00,53.2,48.5,30.12,NW,306,1.0,6.0,84,0.00,,SKC,0.00,VWS V14.01,2013-04-07 07:10:00,
2013-04-07 00:15:00,53.2,48.2,30.12,WSW,257,1.0,3.0,83,0.00,,SKC,0.00,VWS V14.01,2013-04-07 07:15:00,
2013-04-07 00:20:00,53.1,48.1,30.12,West,259,5.0,5.0,83,0.00,,SKC,0.00,VWS V14.01,2013-04-07 07:20:00,
2013-04-07 00:25:00,53.0,47.7,30.13,SW,232,1.0,5.0,82,0.00,,SKC,0.00,VWS V14.01,2013-04-07 07:25:00,
2013-04-07 00:30:00,53.0,48.0,30.13,West,274,0.0,5.0,83,0.00,,SKC,0.00,VWS V14.01,2013-04-07 07:30:00,
2013-04-07 00:35:00,52.8,48.1,30.13,WNW,288,4.0,5.0,84,0.00,,SKC,0.00,VWS V14.01,2013-04-07 07:35:00,
2013-04-07 00:40:00,52.6,48.2,30.13,West,281,1.0,4.0,85,0.00,,SKC,0.00,VWS V14.01,2013-04-07 07:40:00,
2013-04-07 00:45:00,52.4,48.0,30.13,West,281,0.0,4.0,85,0.00,,SKC,0.00,VWS V14.01,2013-04-07 07:45:00,
2013-04-07 00:50:00,52.2,48.2,30.13,NW,304,0.0,4.0,86,0.00,,SKC,0.00,VWS V14.01,2013-04-07 07:50:00,
2013-04-07 00:55:00,52.2,48.2,30.13,SSW,206,0.0,4.0,86,0.00,,SKC,0.00,VWS V14.01,2013-04-07 07:55:00,
2013-04-07 01:00:00,52.1,48.0,30.13,SSW,201,0.0,5.0,86,0.00,,SKC,0.00,VWS V14.01,2013-04-07 08:00:00,
2013-04-07 01:05:00,51.9,48.2,30.13,WSW,240,0.0,2.0,87,0.00,,SKC,0.00,VWS V14.01,2013-04-07 08:05:00,
2013-04-07 01:10:00,51.7,48.0,30.13,WSW,242,0.0,0.0,87,0.00,,SKC,0.00,VWS V14.01,2013-04-07 08:10:00,
2013-04-07 01:15:00,51.5,47.8,30.13,WSW,249,1.0,3.0,87,0.00,,SKC,0.00,VWS V14.01,2013-04-07 08:15:00,
2013-04-07 01:20:00,51.4,48.0,30.13,South,184,0.0,3.0,88,0.00,,SKC,0.00,VWS V14.01,2013-04-07 08:20:00,
2013-04-07 01:25:00,51.3,47.9,30.13,West,277,0.0,4.0,88,0.00,,SKC,0.00,VWS V14.01,2013-04-07 08:25:00,
2013-04-07 01:30:00,51.2,47.8,30.13,SSW,194,1.0,2.0,88,0.00,,SKC,0.00,VWS V14.01,2013-04-07 08:30:00,
2013-04-07 01:35:00,51.2,47.8,30.13,NW,309,0.0,5.0,88,0.00,,SKC,0.00,VWS V14.01,2013-04-07 08:35:00,
2013-04-07 01:40:00,51.3,47.9,30.13,SSE,148,5.0,6.0,88,0.00,,SKC,0.00,VWS V14.01,2013-04-07 08:40:00,
2013-04-07 01:45:00,51.4,48.0,30.12,South,186,4.0,7.0,88,0.00,,SKC,0.00,VWS V14.01,2013-04-07 08:45:00,
2013-04-07 01:50:00,51.4,48.0,30.12,SSW,196,4.0,6.0,88,0.00,,SKC,0.00,VWS V14.01,2013-04-07 08:50:00,
2013-04-07 01:55:00,51.3,47.9,30.12,SSW,202,0.0,5.0,88,0.00,,SKC,0.00,VWS V14.01,2013-04-07 08:55:00,
2013-04-07 02:00:00,51.2,47.8,30.13,SSW,206,1.0,5.0,88,0.00,,SKC,0.00,VWS V14.01,2013-04-07 09:00:00,
2013-04-07 02:05:00,51.1,47.7,30.13,South,186,0.0,2.0,88,0.00,,SKC,0.00,VWS V14.01,2013-04-07 09:05:00,
2013-04-07 02:10:00,51.0,47.6,30.13,SW,223,0.0,2.0,88,0.00,,SKC,0.00,VWS V14.01,2013-04-07 09:10:00,
2013-04-07 02:15:00,50.9,47.5,30.13,SW,222,0.0,1.0,88,0.00,,SKC,0.00,VWS V14.01,2013-04-07 09:15:00,
2013-04-07 02:20:00,50.8,47.7,30.13,SW,217,1.0,2.0,89,0.00,,SKC,0.00,VWS V14.01,2013-04-07 09:20:00,
2013-04-07 02:30:00,50.7,47.6,30.12,South,185,1.0,4.0,89,0.00,,SKC,0.00,VWS V14.01,2013-04-07 09:30:00,
2013-04-07 02:35:00,50.7,47.6,30.12,South,173,0.0,4.0,89,0.00,,SKC,0.00,VWS V14.01,2013-04-07 09:35:00,
2013-04-07 02:40:00,50.6,47.5,30.12,South,173,0.0,1.0,89,0.00,,SKC,0.00,VWS V14.01,2013-04-07 09:40:00,
2013-04-07 02:50:00,50.4,47.3,30.12,SSW,213,0.0,0.0,89,0.00,,SKC,0.00,VWS V14.01,2013-04-07 09:50:00,
2013-04-07 03:00:00,50.2,47.4,30.11,SW,214,0.0,0.0,90,0.00,,SKC,0.00,VWS V14.01,2013-04-07 10:00:00,
2013-04-07 03:05:00,50.1,47.3,30.11,SSW,206,0.0,2.0,90,0.00,,SKC,0.00,VWS V14.01,2013-04-07 10:05:00,
2013-04-07 03:10:00,50.0,47.2,30.11,SSW,206,0.0,0.0,90,0.00,,SKC,0.00,VWS V14.01,2013-04-07 10:10:00,
2013-04-07 03:15:00,50.0,47.2,30.11,SSW,206,0.0,2.0,90,0.00,,SKC,0.00,VWS V14.01,2013-04-07 10:15:00,
2013-04-07 03:20:00,50.0,47.2,30.11,SSW,206,0.0,0.0,90,0.00,,SKC,0.00,VWS V14.01,2013-04-07 10:20:00,
2013-04-07 03:30:00,50.0,47.2,30.10,SE,132,3.0,3.0,90,0.00,,SKC,0.00,VWS V14.01,2013-04-07 10:30:00,
2013-04-07 03:40:00,50.0,47.2,30.10,SE,134,0.0,2.0,90,0.00,,SKC,0.00,VWS V14.01,2013-04-07 10:40:00,
2013-04-07 03:45:00,50.1,47.0,30.09,SE,134,0.0,1.0,89,0.00,,SKC,0.00,VWS V14.01,2013-04-07 10:45:00,
2013-04-07 03:50:00,50.2,47.4,30.09,SE,134,0.0,2.0,90,0.00,,SKC,0.00,VWS V14.01,2013-04-07 10:50:00,
2013-04-07 04:00:00,50.6,47.5,30.09,SE,134,0.0,4.0,89,0.00,,SKC,0.00,VWS V14.01,2013-04-07 11:00:00,
2013-04-07 04:10:00,50.9,47.8,30.09,SE,134,0.0,0.0,89,0.00,,SKC,0.00,VWS V14.01,2013-04-07 11:10:00,
2013-04-07 04:15:00,51.1,48.0,30.09,SE,133,0.0,4.0,89,0.00,,SKC,0.00,VWS V14.01,2013-04-07 11:15:00,
2013-04-07 04:20:00,51.2,47.8,30.09,SE,134,0.0,1.0,88,0.00,,SKC,0.00,VWS V14.01,2013-04-07 11:20:00,
2013-04-07 04:25:00,51.3,47.9,30.10,SE,134,1.0,2.0,88,0.00,,SKC,0.00,VWS V14.01,2013-04-07 11:25:00,
2013-04-07 04:30:00,51.4,48.0,30.09,SE,134,1.0,2.0,88,0.00,,SKC,0.00,VWS V14.01,2013-04-07 11:30:00,
2013-04-07 04:35:00,51.5,48.1,30.09,SE,134,1.0,3.0,88,0.00,,SKC,0.00,VWS V14.01,2013-04-07 11:35:00,
2013-04-07 04:40:00,51.6,47.9,30.09,SE,135,0.0,3.0,87,0.00,,SKC,0.00,VWS V14.01,2013-04-07 11:40:00,
2013-04-07 04:45:00,51.7,48.0,30.09,SE,135,0.0,2.0,87,0.00,,SKC,0.00,VWS V14.01,2013-04-07 11:45:00,
2013-04-07 04:50:00,51.7,48.0,30.09,SE,135,0.0,1.0,87,0.00,,SKC,0.00,VWS V14.01,2013-04-07 11:50:00,
2013-04-07 04:55:00,51.7,47.7,30.09,SE,134,0.0,1.0,86,0.00,,SKC,0.00,VWS V14.01,2013-04-07 11:55:00,
2013-04-07 05:05:00,51.7,47.7,30.09,SE,136,0.0,0.0,86,0.00,,SKC,0.00,VWS V14.01,2013-04-07 12:05:00,
2013-04-07 05:10:00,51.7,48.0,30.09,SE,136,0.0,2.0,87,0.00,,SKC,0.00,VWS V14.01,2013-04-07 12:10:00,
2013-04-07 05:15:00,51.7,47.7,30.09,SE,136,0.0,0.0,86,0.00,,SKC,0.00,VWS V14.01,2013-04-07 12:15:00,
2013-04-07 05:20:00,51.5,47.5,30.09,SE,136,0.0,0.0,86,0.00,,SKC,0.00,VWS V14.01,2013-04-07 12:20:00,
2013-04-07 05:25:00,51.5,47.8,30.09,SE,136,0.0,1.0,87,0.00,,SKC,0.00,VWS V14.01,2013-04-07 12:25:00,
2013-04-07 05:30:00,51.5,47.8,30.08,West,278,0.0,2.0,87,0.00,,SKC,0.00,VWS V14.01,2013-04-07 12:30:00,
2013-04-07 05:35:00,51.4,47.7,30.09,West,277,0.0,2.0,87,0.00,,SKC,0.00,VWS V14.01,2013-04-07 12:35:00,
2013-04-07 05:45:00,51.4,48.0,30.09,West,269,2.0,6.0,88,0.00,,SKC,0.00,VWS V14.01,2013-04-07 12:45:00,
2013-04-07 05:50:00,51.4,48.3,30.09,SSW,205,1.0,5.0,89,0.00,,SKC,0.00,VWS V14.01,2013-04-07 12:50:00,
2013-04-07 06:00:00,51.5,48.4,30.08,West,274,2.0,5.0,89,0.00,,SKC,0.00,VWS V14.01,2013-04-07 13:00:00,
2013-04-07 06:05:00,51.5,48.4,30.08,West,273,0.0,2.0,89,0.00,,SKC,0.00,VWS V14.01,2013-04-07 13:05:00,
2013-04-07 06:10:00,51.4,48.3,30.09,SW,220,0.0,2.0,89,0.00,,SKC,0.00,VWS V14.01,2013-04-07 13:10:00,
2013-04-07 06:20:00,51.2,48.4,30.09,West,259,0.0,2.0,90,0.00,,SKC,0.00,VWS V14.01,2013-04-07 13:20:00,
2013-04-07 06:25:00,51.1,48.3,30.09,West,259,0.0,0.0,90,0.00,,SKC,0.00,VWS V14.01,2013-04-07 13:25:00,
2013-04-07 06:35:00,51.2,48.7,30.09,South,187,0.0,5.0,91,0.00,,SKC,0.00,VWS V14.01,2013-04-07 13:35:00,
2013-04-07 06:40:00,51.3,48.8,30.08,South,187,0.0,1.0,91,0.00,,SKC,0.00,VWS V14.01,2013-04-07 13:40:00,
2013-04-07 06:45:00,51.3,48.8,30.08,South,187,0.0,4.0,91,0.00,,SKC,0.00,VWS V14.01,2013-04-07 13:45:00,
2013-04-07 06:50:00,51.2,48.4,30.09,South,187,0.0,0.0,90,0.00,,SKC,0.00,VWS V14.01,2013-04-07 13:50:00,
2013-04-07 06:55:00,51.1,48.3,30.09,South,187,0.0,0.0,90,0.00,,SKC,0.00,VWS V14.01,2013-04-07 13:55:00,
2013-04-07 07:05:00,51.0,48.2,30.09,South,187,0.0,0.0,90,0.00,,SKC,0.00,VWS V14.01,2013-04-07 14:05:00,
2013-04-07 07:15:00,50.9,48.4,30.10,West,269,1.0,2.0,91,0.00,,SKC,0.00,VWS V14.01,2013-04-07 14:15:00,
2013-04-07 07:20:00,51.0,48.5,30.10,West,269,0.0,3.0,91,0.00,,SKC,0.00,VWS V14.01,2013-04-07 14:20:00,
2013-04-07 07:25:00,51.1,48.6,30.10,SSW,208,1.0,2.0,91,0.00,,SKC,0.00,VWS V14.01,2013-04-07 14:25:00,
2013-04-07 07:30:00,51.4,48.9,30.10,SSW,207,0.0,4.0,91,0.00,,SKC,0.00,VWS V14.01,2013-04-07 14:30:00,
2013-04-07 07:40:00,51.9,49.1,30.09,SSW,207,0.0,0.0,90,0.00,,SKC,0.00,VWS V14.01,2013-04-07 14:40:00,
2013-04-07 07:45:00,52.2,49.4,30.09,SSW,208,0.0,0.0,90,0.00,,SKC,0.00,VWS V14.01,2013-04-07 14:45:00,
2013-04-07 07:50:00,52.4,49.3,30.09,SSW,208,1.0,1.0,89,0.00,,SKC,0.00,VWS V14.01,2013-04-07 14:50:00,
2013-04-07 07:55:00,52.7,49.2,30.09,SSW,208,0.0,4.0,88,0.00,,SKC,0.00,VWS V14.01,2013-04-07 14:55:00,
2013-04-07 08:05:00,53.1,49.3,30.10,SSW,208,0.0,2.0,87,0.00,,SKC,0.00,VWS V14.01,2013-04-07 15:05:00,
2013-04-07 08:15:00,53.8,49.7,30.09,South,188,1.0,4.0,86,0.00,,SKC,0.00,VWS V14.01,2013-04-07 15:15:00,
2013-04-07 08:25:00,54.6,49.9,30.09,SSE,165,2.0,7.0,84,0.00,,SKC,0.00,VWS V14.01,2013-04-07 15:25:00,
2013-04-07 08:30:00,55.0,49.9,30.08,SSE,165,0.0,3.0,83,0.00,,SKC,0.00,VWS V14.01,2013-04-07 15:30:00,
2013-04-07 08:40:00,55.8,50.1,30.08,South,178,1.0,6.0,81,0.00,,SKC,0.00,VWS V14.01,2013-04-07 15:40:00,
2013-04-07 08:50:00,56.6,50.5,30.08,South,184,0.0,5.0,80,0.00,,SKC,0.00,VWS V14.01,2013-04-07 15:50:00,
2013-04-07 09:00:00,57.3,50.8,30.08,South,182,2.0,6.0,79,0.00,,SKC,0.00,VWS V14.01,2013-04-07 16:00:00,
2013-04-07 09:10:00,57.9,51.1,30.08,SSW,210,2.0,4.0,78,0.00,,SKC,0.00,VWS V14.01,2013-04-07 16:10:00,
2013-04-07 09:20:00,58.5,51.7,30.07,SW,222,1.0,5.0,78,0.00,,SKC,0.00,VWS V14.01,2013-04-07 16:20:00,
2013-04-07 09:25:00,58.7,51.5,30.07,SSW,202,0.0,8.0,77,0.00,,SKC,0.00,VWS V14.01,2013-04-07 16:25:00,
2013-04-07 09:30:00,59.0,51.8,30.07,SSW,213,4.0,5.0,77,0.00,,SKC,0.00,VWS V14.01,2013-04-07 16:30:00,
2013-04-07 09:40:00,59.7,51.8,30.07,West,272,5.0,7.0,75,0.00,,SKC,0.00,VWS V14.01,2013-04-07 16:40:00,
2013-04-07 09:45:00,60.1,52.2,30.06,SSE,166,2.0,6.0,75,0.00,,SKC,0.00,VWS V14.01,2013-04-07 16:45:00,
2013-04-07 09:55:00,61.4,52.7,30.06,South,175,0.0,8.0,73,0.00,,SKC,0.00,VWS V14.01,2013-04-07 16:55:00,
2013-04-07 10:00:00,62.2,53.5,30.07,West,265,0.0,5.0,73,0.00,,SKC,0.00,VWS V14.01,2013-04-07 17:00:00,
2013-04-07 10:10:00,63.4,53.5,30.07,SSE,151,3.0,7.0,70,0.00,,SKC,0.00,VWS V14.01,2013-04-07 17:10:00,
2013-04-07 10:20:00,64.1,53.7,30.08,SE,146,1.0,6.0,69,0.00,,SKC,0.00,VWS V14.01,2013-04-07 17:20:00,
2013-04-07 10:25:00,64.3,53.9,30.08,South,175,1.0,6.0,69,0.00,,SKC,0.00,VWS V14.01,2013-04-07 17:25:00,
2013-04-07 10:30:00,64.3,53.9,30.08,SSW,205,0.0,7.0,69,0.00,,SKC,0.00,VWS V14.01,2013-04-07 17:30:00,
2013-04-07 10:35:00,63.7,53.3,30.08,SSW,194,1.0,8.0,69,0.00,,SKC,0.00,VWS V14.01,2013-04-07 17:35:00,
2013-04-07 10:40:00,63.2,53.3,30.08,SSE,167,4.0,7.0,70,0.00,,SKC,0.00,VWS V14.01,2013-04-07 17:40:00,
2013-04-07 10:45:00,62.9,53.4,30.08,SW,230,1.0,5.0,71,0.00,,SKC,0.00,VWS V14.01,2013-04-07 17:45:00,
2013-04-07 10:50:00,62.5,53.4,30.07,South,172,2.0,8.0,72,0.00,,SKC,0.00,VWS V14.01,2013-04-07 17:50:00,
2013-04-07 11:00:00,61.7,53.0,30.07,SE,141,7.0,10.0,73,0.00,,SKC,0.00,VWS V14.01,2013-04-07 18:00:00,
2013-04-07 11:10:00,61.4,53.0,30.07,South,170,6.0,10.0,74,0.00,,SKC,0.00,VWS V14.01,2013-04-07 18:10:00,
2013-04-07 11:15:00,61.8,54.2,30.07,SSE,167,4.0,8.0,76,0.00,,SKC,0.00,VWS V14.01,2013-04-07 18:15:00,
2013-04-07 11:25:00,62.4,53.3,30.07,SE,142,0.0,9.0,72,0.00,,SKC,0.00,VWS V14.01,2013-04-07 18:25:00,
2013-04-07 11:30:00,62.8,53.7,30.07,SSW,199,6.0,8.0,72,0.00,,SKC,0.00,VWS V14.01,2013-04-07 18:30:00,
2013-04-07 11:40:00,62.3,53.2,30.07,South,172,2.0,6.0,72,0.00,,SKC,0.00,VWS V14.01,2013-04-07 18:40:00,
2013-04-07 11:45:00,61.9,53.2,30.07,SSW,202,0.0,7.0,73,0.00,,SKC,0.00,VWS V14.01,2013-04-07 18:45:00,
2013-04-07 11:55:00,61.3,53.3,30.06,West,263,1.0,10.0,75,0.00,,SKC,0.00,VWS V14.01,2013-04-07 18:55:00,
2013-04-07 12:00:00,61.9,53.9,30.06,SSW,193,1.0,7.0,75,0.00,,SKC,0.00,VWS V14.01,2013-04-07 19:00:00,
2013-04-07 12:10:00,62.4,54.0,30.07,SSW,198,6.0,8.0,74,0.00,,SKC,0.00,VWS V14.01,2013-04-07 19:10:00,
2013-04-07 12:15:00,62.0,54.0,30.06,SSW,192,1.0,8.0,75,0.00,,SKC,0.00,VWS V14.01,2013-04-07 19:15:00,
2013-04-07 12:25:00,61.5,53.9,30.06,SSE,167,2.0,8.0,76,0.00,,SKC,0.00,VWS V14.01,2013-04-07 19:25:00,
2013-04-07 12:30:00,61.3,54.0,30.06,South,178,1.0,8.0,77,0.00,,SKC,0.00,VWS V14.01,2013-04-07 19:30:00,
2013-04-07 12:40:00,61.6,54.3,30.05,SSW,204,3.0,7.0,77,0.00,,SKC,0.00,VWS V14.01,2013-04-07 19:40:00,
2013-04-07 12:45:00,62.0,54.4,30.05,SSW,206,5.0,9.0,76,0.00,,SKC,0.00,VWS V14.01,2013-04-07 19:45:00,
2013-04-07 12:50:00,62.0,54.0,30.05,SW,214,6.0,12.0,75,0.00,,SKC,0.00,VWS V14.01,2013-04-07 19:50:00,
2013-04-07 12:55:00,61.3,54.0,30.06,SW,225,4.0,11.0,77,0.00,,SKC,0.00,VWS V14.01,2013-04-07 19:55:00,
2013-04-07 13:00:00,61.1,53.8,30.06,South,177,0.0,9.0,77,0.00,,SKC,0.00,VWS V14.01,2013-04-07 20:00:00,
2013-04-07 13:10:00,60.8,53.9,30.04,South,178,2.0,6.0,78,0.00,,SKC,0.00,VWS V14.01,2013-04-07 20:10:00,
2013-04-07 13:15:00,60.8,53.5,30.04,SSW,202,5.0,8.0,77,0.00,,SKC,0.00,VWS V14.01,2013-04-07 20:15:00,
2013-04-07 13:25:00,60.9,53.7,30.03,SSE,153,1.0,6.0,77,0.00,,SKC,0.00,VWS V14.01,2013-04-07 20:25:00,
2013-04-07 13:30:00,61.3,53.7,30.02,SSW,202,1.0,8.0,76,0.00,,SKC,0.00,VWS V14.01,2013-04-07 20:30:00,
2013-04-07 13:40:00,61.9,53.9,30.02,SSE,152,3.0,10.0,75,0.00,,SKC,0.00,VWS V14.01,2013-04-07 20:40:00,
2013-04-07 13:45:00,61.7,53.3,30.02,South,184,4.0,9.0,74,0.00,,SKC,0.00,VWS V14.01,2013-04-07 20:45:00,
2013-04-07 13:50:00,61.9,52.8,30.02,SSW,192,7.0,9.0,72,0.00,,SKC,0.00,VWS V14.01,2013-04-07 20:50:00,
2013-04-07 14:00:00,62.7,53.2,30.01,SSE,165,11.0,11.0,71,0.00,,SKC,0.00,VWS V14.01,2013-04-07 21:00:00,
2013-04-07 14:05:00,62.5,53.0,30.00,SSE,156,4.0,11.0,71,0.00,,SKC,0.00,VWS V14.01,2013-04-07 21:05:00,
2013-04-07 14:10:00,63.2,52.9,30.00,South,188,1.0,8.0,69,0.00,,SKC,0.00,VWS V14.01,2013-04-07 21:10:00,
2013-04-07 14:20:00,63.8,52.7,30.00,South,177,7.0,10.0,67,0.00,,SKC,0.00,VWS V14.01,2013-04-07 21:20:00,
2013-04-07 14:25:00,63.7,51.3,29.99,South,176,6.0,12.0,64,0.00,,SKC,0.00,VWS V14.01,2013-04-07 21:25:00,
2013-04-07 14:30:00,63.7,51.7,29.98,NNW,329,7.0,14.0,65,0.00,,SKC,0.00,VWS V14.01,2013-04-07 21:30:00,
2013-04-07 14:35:00,64.3,51.9,29.98,South,169,8.0,8.0,64,0.00,,SKC,0.00,VWS V14.01,2013-04-07 21:35:00,
2013-04-07 14:45:00,64.5,52.1,29.98,SSW,210,4.0,10.0,64,0.00,,SKC,0.00,VWS V14.01,2013-04-07 21:45:00,
2013-04-07 14:55:00,63.9,51.1,29.98,SSW,195,0.0,11.0,63,0.00,,SKC,0.00,VWS V14.01,2013-04-07 21:55:00,
2013-04-07 15:00:00,64.0,51.2,29.98,SSW,195,6.0,10.0,63,0.00,,SKC,0.00,VWS V14.01,2013-04-07 22:00:00,
2013-04-07 15:05:00,64.2,51.4,29.98,WNW,284,2.0,11.0,63,0.00,,SKC,0.00,VWS V14.01,2013-04-07 22:05:00,
2013-04-07 15:10:00,64.3,51.5,29.98,South,183,6.0,9.0,63,0.00,,SKC,0.00,VWS V14.01,2013-04-07 22:10:00,
2013-04-07 15:20:00,64.0,50.7,29.98,SSE,168,5.0,13.0,62,0.00,,SKC,0.00,VWS V14.01,2013-04-07 22:20:00,
2013-04-07 15:25:00,63.7,50.5,29.98,SSE,163,6.0,10.0,62,0.00,,SKC,0.00,VWS V14.01,2013-04-07 22:25:00,
2013-04-07 15:30:00,64.0,50.3,29.99,South,190,5.0,8.0,61,0.00,,SKC,0.00,VWS V14.01,2013-04-07 22:30:00,
2013-04-07 15:35:00,64.1,50.4,29.98,WNW,303,4.0,11.0,61,0.00,,SKC,0.00,VWS V14.01,2013-04-07 22:35:00,
2013-04-07 15:40:00,64.0,50.3,29.98,South,177,4.0,10.0,61,0.00,,SKC,0.00,VWS V14.01,2013-04-07 22:40:00,
2013-04-07 15:55:00,63.4,49.7,29.98,South,182,6.0,10.0,61,0.00,,SKC,0.00,VWS V14.01,2013-04-07 22:55:00,
2013-04-07 16:00:00,63.4,49.7,29.97,SSW,192,8.0,10.0,61,0.00,,SKC,0.00,VWS V14.01,2013-04-07 23:00:00,
2013-04-07 16:05:00,63.0,50.2,29.97,SE,146,6.0,10.0,63,0.00,,SKC,0.00,VWS V14.01,2013-04-07 23:05:00,
2013-04-07 16:15:00,62.3,49.1,29.97,South,186,7.0,14.0,62,0.00,,SKC,0.00,VWS V14.01,2013-04-07 23:15:00,
2013-04-07 16:20:00,62.1,49.4,29.97,SSE,163,2.0,10.0,63,0.00,,SKC,0.00,VWS V14.01,2013-04-07 23:20:00,
2013-04-07 16:30:00,62.2,49.9,29.97,SSE,154,3.0,9.0,64,0.00,,SKC,0.00,VWS V14.01,2013-04-07 23:30:00,
2013-04-07 16:35:00,62.0,49.3,29.97,SSW,195,4.0,10.0,63,0.00,,SKC,0.00,VWS V14.01,2013-04-07 23:35:00,
2013-04-07 16:45:00,60.6,49.2,29.96,SSW,203,1.0,14.0,66,0.00,,SKC,0.00,VWS V14.01,2013-04-07 23:45:00,
2013-04-07 16:50:00,60.8,49.4,29.95,SSW,209,1.0,8.0,66,0.00,,SKC,0.00,VWS V14.01,2013-04-07 23:50:00,
2013-04-07 16:55:00,60.8,49.4,29.96,SSE,163,6.0,9.0,66,0.00,,SKC,0.00,VWS V14.01,2013-04-07 23:55:00,
2013-04-07 17:05:00,60.8,49.4,29.95,South,184,5.0,13.0,66,0.00,,SKC,0.00,VWS V14.01,2013-04-08 00:05:00,
2013-04-07 17:10:00,60.4,49.4,29.95,South,180,5.0,11.0,67,0.00,,SKC,0.00,VWS V14.01,2013-04-08 00:10:00,
2013-04-07 17:20:00,59.6,49.0,29.95,West,260,9.0,12.0,68,0.00,,SKC,0.00,VWS V14.01,2013-04-08 00:20:00,
2013-04-07 17:25:00,59.2,48.3,29.95,SSW,213,5.0,10.0,67,0.00,,SKC,0.00,VWS V14.01,2013-04-08 00:25:00,
2013-04-07 17:35:00,59.0,48.9,29.95,South,177,4.0,9.0,69,0.00,,SKC,0.00,VWS V14.01,2013-04-08 00:35:00,
2013-04-07 17:40:00,58.6,48.9,29.94,SW,231,5.0,12.0,70,0.00,,SKC,0.00,VWS V14.01,2013-04-08 00:40:00,
2013-04-07 17:45:00,58.7,49.0,29.94,SW,227,2.0,11.0,70,0.00,,SKC,0.00,VWS V14.01,2013-04-08 00:45:00,
2013-04-07 17:50:00,59.0,49.2,29.93,SSE,149,2.0,10.0,70,0.00,,SKC,0.00,VWS V14.01,2013-04-08 00:50:00,
2013-04-07 17:55:00,59.0,49.2,29.93,SSW,194,3.0,9.0,70,0.00,,SKC,0.00,VWS V14.01,2013-04-08 00:55:00,
2013-04-07 18:00:00,58.5,48.8,29.92,SSE,164,7.0,10.0,70,0.00,,SKC,0.00,VWS V14.01,2013-04-08 01:00:00,
2013-04-07 18:05:00,57.9,48.6,29.92,West,268,6.0,7.0,71,0.00,,SKC,0.00,VWS V14.01,2013-04-08 01:05:00,
2013-04-07 18:10:00,57.7,48.4,29.93,SE,132,6.0,10.0,71,0.00,,SKC,0.00,VWS V14.01,2013-04-08 01:10:00,
2013-04-07 18:15:00,57.3,48.0,29.92,SSW,194,7.0,15.0,71,0.00,,SKC,0.00,VWS V14.01,2013-04-08 01:15:00,
2013-04-07 18:20:00,57.0,48.1,29.92,South,174,6.0,10.0,72,0.00,,SKC,0.00,VWS V14.01,2013-04-08 01:20:00,
2013-04-07 18:25:00,56.8,47.9,29.92,SSW,202,5.0,9.0,72,0.00,,SKC,0.00,VWS V14.01,2013-04-08 01:25:00,
2013-04-07 18:35:00,56.1,47.6,29.92,SSE,161,4.0,11.0,73,0.00,,SKC,0.00,VWS V14.01,2013-04-08 01:35:00,
2013-04-07 18:40:00,56.0,47.5,29.92,SSW,207,4.0,7.0,73,0.00,,SKC,0.00,VWS V14.01,2013-04-08 01:40:00,
2013-04-07 18:50:00,55.6,47.5,29.92,SW,214,1.0,11.0,74,0.00,,SKC,0.00,VWS V14.01,2013-04-08 01:50:00,
2013-04-07 19:00:00,55.2,47.8,29.92,WSW,238,4.0,9.0,76,0.00,,SKC,0.00,VWS V14.01,2013-04-08 02:00:00,
2013-04-07 19:05:00,54.9,47.1,29.92,SSW,192,9.0,12.0,75,0.00,,SKC,0.00,VWS V14.01,2013-04-08 02:05:00,
2013-04-07 19:10:00,54.4,47.0,29.92,SSW,206,5.0,9.0,76,0.00,,SKC,0.00,VWS V14.01,2013-04-08 02:10:00,
2013-04-07 19:15:00,54.1,46.7,29.92,SSE,147,2.0,9.0,76,0.00,,SKC,0.00,VWS V14.01,2013-04-08 02:15:00,
2013-04-07 19:25:00,53.5,46.1,29.92,West,267,1.0,8.0,76,0.00,,SKC,0.00,VWS V14.01,2013-04-08 02:25:00,
2013-04-07 19:30:00,53.4,46.0,29.91,South,169,1.0,9.0,76,0.00,,SKC,0.00,VWS V14.01,2013-04-08 02:30:00,
2013-04-07 19:35:00,53.3,45.9,29.91,South,186,5.0,10.0,76,0.00,,SKC,0.00,VWS V14.01,2013-04-08 02:35:00,
2013-04-07 19:45:00,53.1,46.1,29.92,SSW,200,1.0,11.0,77,0.00,,SKC,0.00,VWS V14.01,2013-04-08 02:45:00,
2013-04-07 19:50:00,53.0,46.0,29.92,SW,217,4.0,8.0,77,0.00,,SKC,0.00,VWS V14.01,2013-04-08 02:50:00,
2013-04-07 20:00:00,53.0,46.3,29.91,SW,221,1.0,8.0,78,0.00,,SKC,0.00,VWS V14.01,2013-04-08 03:00:00,
2013-04-07 20:05:00,52.9,46.2,29.91,SW,219,3.0,7.0,78,0.00,,SKC,0.00,VWS V14.01,2013-04-08 03:05:00,
2013-04-07 20:10:00,53.0,46.7,29.90,SSW,198,4.0,6.0,79,0.00,,SKC,0.00,VWS V14.01,2013-04-08 03:10:00,
2013-04-07 20:20:00,52.8,46.8,29.90,WSW,245,7.0,7.0,80,0.00,,SKC,0.00,VWS V14.01,2013-04-08 03:20:00,
2013-04-07 20:25:00,52.6,46.6,29.90,SE,126,5.0,11.0,80,0.00,,SKC,0.00,VWS V14.01,2013-04-08 03:25:00,
2013-04-07 20:35:00,52.4,46.4,29.90,SSW,202,4.0,10.0,80,0.00,,SKC,0.00,VWS V14.01,2013-04-08 03:35:00,
2013-04-07 20:40:00,52.4,46.4,29.90,SSW,207,2.0,9.0,80,0.00,,SKC,0.00,VWS V14.01,2013-04-08 03:40:00,
2013-04-07 20:50:00,52.3,46.7,29.91,South,188,1.0,7.0,81,0.00,,SKC,0.00,VWS V14.01,2013-04-08 03:50:00,
2013-04-07 20:55:00,52.2,46.9,29.90,SSW,203,2.0,6.0,82,0.00,,SKC,0.00,VWS V14.01,2013-04-08 03:55:00,
2013-04-07 21:00:00,51.8,47.1,29.89,South,178,1.0,8.0,84,0.00,,SKC,0.00,VWS V14.01,2013-04-08 04:00:00,
2013-04-07 21:05:00,51.4,47.0,29.89,SSW,192,3.0,9.0,85,0.00,,SKC,0.00,VWS V14.01,2013-04-08 04:05:00,
2013-04-07 21:10:00,51.1,46.8,29.89,South,190,2.0,9.0,85,0.00,,SKC,0.00,VWS V14.01,2013-04-08 04:10:00,
2013-04-07 21:15:00,51.0,47.0,29.89,SSW,192,6.0,9.0,86,0.00,,SKC,0.00,VWS V14.01,2013-04-08 04:15:00,
2013-04-07 21:20:00,50.9,46.9,29.89,South,174,2.0,8.0,86,0.00,,SKC,0.00,VWS V14.01,2013-04-08 04:20:00,
2013-04-07 21:25:00,51.0,47.0,29.89,South,186,0.0,8.0,86,0.00,,SKC,0.00,VWS V14.01,2013-04-08 04:25:00,
2013-04-07 21:30:00,51.1,47.1,29.88,SSW,195,5.0,6.0,86,0.00,,SKC,0.00,VWS V14.01,2013-04-08 04:30:00,
2013-04-07 21:35:00,51.2,47.2,29.88,SE,126,2.0,8.0,86,0.00,,SKC,0.00,VWS V14.01,2013-04-08 04:35:00,
2013-04-07 21:45:00,51.3,47.3,29.89,South,187,2.0,7.0,86,0.00,,SKC,0.00,VWS V14.01,2013-04-08 04:45:00,
2013-04-07 21:50:00,51.3,47.3,29.89,South,188,4.0,6.0,86,0.00,,SKC,0.00,VWS V14.01,2013-04-08 04:50:00,
2013-04-07 21:55:00,51.4,47.4,29.88,South,176,1.0,6.0,86,0.00,,SKC,0.00,VWS V14.01,2013-04-08 04:55:00,
2013-04-07 22:00:00,51.4,47.4,29.88,SSW,207,2.0,8.0,86,0.00,,SKC,0.00,VWS V14.01,2013-04-08 05:00:00,
2013-04-07 22:05:00,51.4,47.4,29.87,South,184,2.0,7.0,86,0.00,,SKC,0.00,VWS V14.01,2013-04-08 05:05:00,
2013-04-07 22:10:00,51.4,47.7,29.87,SW,221,2.0,7.0,87,0.00,,SKC,0.00,VWS V14.01,2013-04-08 05:10:00,
2013-04-07 22:15:00,51.4,47.7,29.86,South,184,4.0,8.0,87,0.00,,SKC,0.00,VWS V14.01,2013-04-08 05:15:00,
2013-04-07 22:20:00,51.4,48.0,29.85,SSW,193,1.0,6.0,88,0.00,,SKC,0.00,VWS V14.01,2013-04-08 05:20:00,
2013-04-07 22:25:00,51.4,48.0,29.85,SSW,199,2.0,8.0,88,0.00,,SKC,0.00,VWS V14.01,2013-04-08 05:25:00,
2013-04-07 22:35:00,51.0,48.2,29.84,South,188,5.0,5.0,90,0.01,,SKC,0.01,VWS V14.01,2013-04-08 05:35:00,
2013-04-07 22:45:00,51.0,48.5,29.84,SSW,193,1.0,5.0,91,0.02,,SKC,0.02,VWS V14.01,2013-04-08 05:45:00,
2013-04-07 22:50:00,50.8,48.6,29.83,SSW,192,4.0,5.0,92,0.03,,SKC,0.03,VWS V14.01,2013-04-08 05:50:00,
2013-04-07 22:55:00,50.8,48.6,29.83,SE,142,1.0,5.0,92,0.04,,SKC,0.04,VWS V14.01,2013-04-08 05:55:00,
2013-04-07 23:00:00,50.8,48.6,29.83,South,182,6.0,9.0,92,0.04,,SKC,0.04,VWS V14.01,2013-04-08 06:00:00,
2013-04-07 23:10:00,50.8,48.8,29.81,SSE,167,3.0,8.0,93,0.04,,SKC,0.04,VWS V14.01,2013-04-08 06:10:00,
2013-04-07 23:15:00,50.7,48.8,29.81,SSE,147,4.0,10.0,93,0.04,,SKC,0.04,VWS V14.01,2013-04-08 06:15:00,
2013-04-07 23:20:00,50.9,49.0,29.81,SSE,165,1.0,10.0,93,0.05,,SKC,0.05,VWS V14.01,2013-04-08 06:20:00,
2013-04-07 23:30:00,51.2,49.5,29.81,SSW,192,0.0,11.0,94,0.06,,SKC,0.06,VWS V14.01,2013-04-08 06:30:00,
2013-04-07 23:40:00,51.6,49.9,29.80,South,188,7.0,8.0,94,0.05,,SKC,0.06,VWS V14.01,2013-04-08 06:40:00,
2013-04-07 23:45:00,51.7,50.0,29.80,SW,222,1.0,11.0,94,0.04,,SKC,0.06,VWS V14.01,2013-04-08 06:45:00,
2013-04-07 23:55:00,51.8,50.1,29.81,WSW,239,4.0,7.0,94,0.03,,SKC,0.06,VWS V14.01,2013-04-08 06:55:00,